Pittsburgh, PA

6:15 AM EDT on August 24, 2016 (GMT -0400)
Pittsburgh International

Weather History for KPIT - September, 2013

Change the Weather History Date:

Monday, September 9, 2013

  Actual Average Record
Temperature  
Mean Temperature 70 °F 67 °F  
Max Temperature 82 °F 77 °F 98 °F (1884)
Min Temperature 57 °F 57 °F 39 °F (1883)
Degree Days  
Heating Degree Days 0 2  
Month to date heating degree days 5 10  
Since 1 July heating degree days 16 23  
Cooling Degree Days 5 3  
Month to date cooling degree days 32 38  
Year to date cooling degree days 751 690  
Growing Degree Days 20 (Base 50)    
Moisture  
Dew Point 62 °F    
Average Humidity 80    
Maximum Humidity 97    
Minimum Humidity 62    
Precipitation  
Precipitation 0.47 in 0.11 in 1.77 in (1911)
Month to date precipitation 0.48 0.98  
Year to date precipitation 26.24 27.69  
Snow  
Snow 0.00 in 0.00 in 0.00 in (2002)
Month to date snowfall 0.0 0.0  
Since 1 July snowfall 0.0 0.0  
Snow Depth 0.00 in    
Sea Level Pressure  
Sea Level Pressure 30.08 in    
Wind  
Wind Speed 5 mph (SE)    
Max Wind Speed 28 mph    
Max Gust Speed 43 mph    
Visibility 8 miles    
Events Fog , Rain , Thunderstorm    
T = Trace of Precipitation, MM = Missing Value Source: NWS Daily Summary

Daily Weather History Graph

Daily Weather History Graph

Search for Another Location

Airport or City:

Trip Planner

Search our weather history database for the weather conditions in past years. The results will help you decide how hot, cold, wet, or windy it might be!

Date:

Astronomy

Sep. 09, 2013 Rise Set
Actual Time 6:56 AM EDT 7:39 PM EDT
Civil Twilight 6:28 AM EDT 8:06 PM EDT
Nautical Twilight 5:55 AM EDT 8:39 PM EDT
Astronomical Twilight 5:22 AM EDT 9:13 PM EDT
Moon 11:17 AM EDT (9/9) 9:53 PM EDT (9/9)
Length of Visible Light 13h 38m
Length of Day
12h 43m
Waxing Crescent, 19% of the Moon is Illuminated
Sep 9
Waxing Crescent
Sep 12
First Quarter
Sep 19
Full
Sep 26
Last Quarter
Oct 4
New

Hourly Weather History & Observations

Time (EDT) Temp. Heat Index Dew Point Humidity Pressure Visibility Wind Dir Wind Speed Gust Speed Precip Events Conditions
12:51 AM 63.0 °F - 54.0 °F 72% 30.08 in 10.0 mi NNE 4.6 mph - N/A   Scattered Clouds
1:51 AM 61.0 °F - 53.1 °F 75% 30.07 in 10.0 mi Calm Calm - N/A   Scattered Clouds
2:51 AM 60.1 °F - 53.1 °F 78% 30.08 in 10.0 mi Calm Calm - N/A   Mostly Cloudy
3:51 AM 60.1 °F - 54.0 °F 80% 30.08 in 10.0 mi Calm Calm - N/A   Mostly Cloudy
4:51 AM 59.0 °F - 53.1 °F 81% 30.09 in 10.0 mi East 3.5 mph - N/A   Scattered Clouds
5:51 AM 57.0 °F - 53.1 °F 87% 30.09 in 10.0 mi East 3.5 mph - N/A   Scattered Clouds
6:51 AM 57.9 °F - 54.0 °F 87% 30.09 in 10.0 mi East 3.5 mph - N/A   Mostly Cloudy
7:51 AM 59.0 °F - 54.0 °F 83% 30.11 in 10.0 mi East 4.6 mph - N/A   Overcast
8:51 AM 61.0 °F - 55.0 °F 81% 30.12 in 10.0 mi ESE 6.9 mph - N/A   Overcast
9:51 AM 66.9 °F - 57.9 °F 73% 30.12 in 10.0 mi SE 5.8 mph - N/A   Overcast
10:51 AM 72.0 °F - 61.0 °F 68% 30.12 in 10.0 mi South 9.2 mph - N/A   Overcast
11:51 AM 73.9 °F - 63.0 °F 68% 30.11 in 10.0 mi SSE 6.9 mph - N/A   Overcast
12:51 PM 75.9 °F - 64.0 °F 67% 30.10 in 10.0 mi SSE 5.8 mph - N/A   Overcast
1:51 PM 79.0 °F - 66.0 °F 64% 30.08 in 10.0 mi South 6.9 mph - N/A   Mostly Cloudy
2:51 PM 80.1 °F 82.3 °F 66.9 °F 64% 30.07 in 10.0 mi South 3.5 mph - N/A   Overcast
3:51 PM 82.0 °F 84.9 °F 68.0 °F 62% 30.04 in 10.0 mi SSE 6.9 mph - N/A   Overcast
4:42 PM 80.6 °F 83.9 °F 69.8 °F 70% 30.03 in 9.0 mi SSW 3.5 mph - 0.00 in Thunderstorm Thunderstorm
4:51 PM 80.1 °F 82.3 °F 66.9 °F 64% 30.04 in 8.0 mi SSW 15.0 mph 20.7 mph 0.00 in Rain , Thunderstorm Light Thunderstorms and Rain
5:05 PM 73.4 °F - 64.4 °F 73% 30.05 in 2.5 mi South 8.1 mph - 0.01 in Rain , Thunderstorm Heavy Thunderstorms and Rain
5:19 PM 71.6 °F - 62.6 °F 73% 30.03 in 7.0 mi NE 16.1 mph 42.6 mph 0.37 in Rain , Thunderstorm Light Thunderstorms and Rain
5:42 PM 71.6 °F - 66.2 °F 83% 30.03 in 9.0 mi ENE 6.9 mph - 0.44 in   Overcast
5:51 PM 71.1 °F - 66.9 °F 87% 30.05 in 9.0 mi East 4.6 mph - 0.44 in   Overcast
6:51 PM 72.0 °F - 68.0 °F 87% 30.05 in 7.0 mi ESE 5.8 mph - N/A   Overcast
7:51 PM 71.1 °F - 68.0 °F 90% 30.06 in 7.0 mi SSE 4.6 mph - N/A   Overcast
8:51 PM 71.1 °F - 68.0 °F 90% 30.08 in 5.0 mi SE 3.5 mph - 0.01 in Rain Light Rain
9:51 PM 71.1 °F - 68.0 °F 90% 30.08 in 5.0 mi Calm Calm - 0.02 in Rain Light Rain
10:51 PM 70.0 °F - 68.0 °F 93% 30.06 in 5.0 mi South 3.5 mph - 0.00 in Fog Overcast
11:51 PM 70.0 °F - 68.0 °F 93% 30.08 in 5.0 mi Calm Calm - N/A Fog Mostly Cloudy